Weather History for KOJC - June, 2013

Change the Weather History Date:

Sunday, June 2, 2013

  Actual Average Record
Temperature  
Mean Temperature 58 °F 70 °F  
Max Temperature 64 °F 80 °F 91 °F (1972)
Min Temperature 51 °F 60 °F 45 °F (1969)
Degree Days  
Heating Degree Days 7 1  
Month to date heating degree days 9 2  
Since 1 June heating degree days 9 2  
Since 1 July heating degree days 5094 4928  
Cooling Degree Days 0 6  
Month to date cooling degree days 0 12  
Year to date cooling degree days 101 116  
Since 1 June cooling degree days 0 12  
Growing Degree Days 8 (Base 50)    
Moisture  
Dew Point 48 °F    
Average Humidity 70    
Maximum Humidity 83    
Minimum Humidity 56    
Precipitation  
Precipitation 0.00 in 0.21 in 1.65 in (2003)
Month to date precipitation T 0.44  
Year to date precipitation 17.93 15.18  
Sea Level Pressure  
Sea Level Pressure 30.04 in    
Wind  
Wind Speed 7 mph (NNW)    
Max Wind Speed 15 mph    
Max Gust Speed 22 mph    
Visibility 10 miles    
Events      
T = Trace of Precipitation, MM = Missing Value Source: NWS Daily Summary

Daily Weather History Graph

Daily Weather History Graph

Search for Another Location

Airport or City:

Trip Planner

Search our weather history database for the weather conditions in past years. The results will help you decide how hot, cold, wet, or windy it might be!

Date:

Astronomy

Jun. 02, 2013 Rise Set
Actual Time 5:55 AM CDT 8:39 PM CDT
Civil Twilight 5:23 AM CDT 9:10 PM CDT
Nautical Twilight 4:44 AM CDT 9:50 PM CDT
Astronomical Twilight 3:59 AM CDT 10:34 PM CDT
Moon 2:19 AM CDT (6/2) 3:13 PM CDT (6/2)
Length of Visible Light 15h 46m
Length of Day
14h 44m
Waning Crescent, 30% of the Moon is Illuminated
Jun 2
Waning Crescent
Jun 8
New
Jun 16
First Quarter
Jun 23
Full
Jun 29
Last Quarter

Hourly Weather History & Observations

Time (CDT) Temp. Dew Point Humidity Pressure Visibility Wind Dir Wind Speed Gust Speed Precip Events Conditions
12:53 AM 57.9 °F 50.0 °F 75% 29.99 in 10.0 mi NNW 8.1 mph - N/A   Clear
1:53 AM 57.9 °F 48.9 °F 72% 29.99 in 10.0 mi NNW 10.4 mph - N/A   Overcast
2:53 AM 57.0 °F 48.9 °F 74% 29.99 in 10.0 mi NNW 9.2 mph - N/A   Overcast
3:21 AM 57.2 °F 48.2 °F 72% 30.01 in 10.0 mi NNW 6.9 mph - N/A   Mostly Cloudy
3:53 AM 57.0 °F 48.9 °F 74% 30.00 in 10.0 mi NNW 6.9 mph - N/A   Overcast
4:53 AM 55.9 °F 48.0 °F 75% 30.01 in 10.0 mi NNW 11.5 mph 18.4 mph N/A   Overcast
5:04 AM 55.4 °F 48.2 °F 77% 30.03 in 10.0 mi North 12.7 mph - N/A   Overcast
5:53 AM 55.9 °F 48.0 °F 75% 30.03 in 10.0 mi NNW 8.1 mph - N/A   Overcast
6:15 AM 55.4 °F 48.2 °F 77% 30.04 in 10.0 mi NNW 9.2 mph - N/A   Overcast
6:53 AM 55.0 °F 48.9 °F 80% 30.04 in 10.0 mi NNW 8.1 mph - N/A   Overcast
7:53 AM 55.0 °F 48.9 °F 80% 30.06 in 10.0 mi North 8.1 mph - N/A   Overcast
8:53 AM 55.9 °F 50.0 °F 80% 30.07 in 10.0 mi NNW 6.9 mph - N/A   Overcast
9:53 AM 57.0 °F 48.9 °F 74% 30.07 in 10.0 mi North 8.1 mph - N/A   Overcast
10:53 AM 57.9 °F 48.9 °F 72% 30.08 in 10.0 mi North 11.5 mph 21.9 mph N/A   Overcast
11:53 AM 57.0 °F 48.9 °F 74% 30.09 in 10.0 mi North 9.2 mph - N/A   Overcast
12:53 PM 59.0 °F 50.0 °F 72% 30.09 in 10.0 mi NW 9.2 mph - N/A   Overcast
1:53 PM 61.0 °F 48.0 °F 62% 30.08 in 10.0 mi NNW 6.9 mph - N/A   Overcast
2:00 PM 60.8 °F 48.2 °F 63% 30.09 in 10.0 mi NW 8.1 mph - N/A   Overcast
2:53 PM 61.0 °F 48.9 °F 64% 30.08 in 10.0 mi NW 10.4 mph - N/A   Overcast
3:53 PM 63.0 °F 46.9 °F 56% 30.06 in 10.0 mi North 10.4 mph - N/A   Overcast
4:53 PM 62.1 °F 46.0 °F 56% 30.05 in 10.0 mi North 10.4 mph - N/A   Overcast
5:53 PM 63.0 °F 46.0 °F 54% 30.03 in 10.0 mi North 8.1 mph - N/A   Partly Cloudy
6:53 PM 63.0 °F 46.0 °F 54% 30.03 in 10.0 mi North 5.8 mph - N/A   Partly Cloudy
7:53 PM 61.0 °F 46.0 °F 58% 30.03 in 10.0 mi ENE 3.5 mph - N/A   Clear
8:53 PM 57.0 °F 46.0 °F 67% 30.04 in 10.0 mi Calm Calm - N/A   Clear
9:53 PM 55.0 °F 46.0 °F 72% 30.04 in 10.0 mi East 3.5 mph - N/A   Clear
10:53 PM 52.0 °F 46.0 °F 80% 30.04 in 10.0 mi Calm Calm - N/A   Clear
11:53 PM 52.0 °F 46.9 °F 83% 30.05 in 10.0 mi Calm Calm - N/A   Clear